Location: Dodgeville
(42.9600°N, 90.1300°W)
Time: 16:16:19
(UTC-05:00)

Amateur Radio Satellites - All Passes

Search period start: 01 May 2016 15:46
Search period end: 02 May 2016 15:46
Location: Dodgeville, 42.9600°N, 90.1300°W

Satellite Date Start Highest point End Downlink Frequencies (MHz)
Time Altitude Azimuth
TISAT 1 01 May 15:47:23 15:48:30 11° 300° (WNW) 15:49:36 437.305
ISS 01 May 16:07:36 16:08:14 10° 230° (SW) 16:08:52 145.825
O/OREOS (USA 219) 01 May 16:10:27 16:14:52 46° 298° (WNW) 16:19:19 437.305
SO-50 01 May 16:12:20 16:17:00 53° 51° (NE) 16:21:30 436.795
MOZHAYETS 4 01 May 16:20:19 16:24:14 27° 95° (E) 16:28:07
PHONESAT 2.4 01 May 16:27:32 16:28:41 12° 210° (SSW) 16:29:52 2401.200-2431.200
KKS-1 01 May 16:27:53 16:32:15 49° 100° (E) 16:36:34 437.445
ITAMSAT 1 01 May 16:28:10 16:30:56 14° 270° (W) 16:33:43 435.822/435.867
AO-85 01 May 16:29:40 16:30:07 10° 335° (NNW) 16:30:35 145.980
ITUPSAT 1 01 May 16:30:22 16:34:12 25° 295° (WNW) 16:38:02 437.325
SWISSCUBE 01 May 16:41:08 16:44:19 18° 298° (WNW) 16:47:30 437.505
STARS 01 May 16:48:40 16:52:53 43° 99° (E) 16:57:04 437.465
CUSAT 1 01 May 16:49:01 16:51:48 21° 295° (WNW) 16:55:10 437.405
Cubesat XI-IV 01 May 16:50:28 16:52:47 13° 57° (ENE) 16:55:08 437.490
NOAA 15 01 May 16:52:14 16:55:56 20° 61° (ENE) 16:59:40 137.62
HORYU 2 01 May 16:53:50 16:58:19 86° 257° (WSW) 17:02:49 437.375
PCSat 01 May 16:59:16 17:04:37 60° 304° (WNW) 17:10:01 145.827
Cosmos 2491 01 May 17:03:27 17:10:45 28° 65° (ENE) 17:17:57 435.465 / 435.565
AO-7 01 May 17:08:38 17:15:44 31° 264° (W) 17:22:54 29.400- 29.500
DANDE 01 May 17:18:57 17:21:10 19° 293° (WNW) 17:23:45 436.750
YUBILEINY 01 May 17:23:27 17:25:50 11° 72° (ENE) 17:28:11 435.215
M-CUBED/EXP-1 PRIME 01 May 17:25:56 17:28:29 15° 56° (NE) 17:31:00 437.505
LilacSat-2 01 May 17:39:54 17:42:57 22° 68° (ENE) 17:45:59 437.200
CUTE-I 01 May 17:43:24 17:48:14 36° 67° (ENE) 17:53:04 437.470
NOAA 18 01 May 17:43:34 17:48:53 50° 69° (ENE) 17:54:11 137.9125
AUBIESAT-1 01 May 17:45:13 17:48:19 18° 58° (ENE) 17:51:24 437.475
GOMX 1 01 May 17:53:03 17:56:46 21° 62° (ENE) 18:00:38 467.674
SO-50 01 May 17:53:45 17:57:04 19° 250° (WSW) 18:00:18 436.795
MOZHAYETS 4 01 May 17:57:23 18:01:22 30° 292° (WNW) 18:05:21
DOVE 4 01 May 17:58:11 18:00:19 13° 58° (ENE) 18:02:29 437.250
CUBESAT XI-V 01 May 18:01:08 18:05:27 35° 97° (E) 18:09:46 437.345
KKS-1 01 May 18:05:27 18:08:26 18° 297° (WNW) 18:11:23 437.445
BRITE-PL 01 May 18:10:46 18:15:27 54° 72° (ENE) 18:20:31 437.365/2234.400
STARS 01 May 18:25:47 18:28:57 20° 296° (WNW) 18:32:05 437.465
Cubesat XI-IV 01 May 18:26:43 18:32:04 86° 75° (ENE) 18:37:26 437.490
NOAA 15 01 May 18:30:04 18:35:15 59° 259° (WSW) 18:40:30 137.62
PCSat 01 May 18:46:37 18:49:11 13° 325° (NW) 18:51:46 145.827
CINEMA 3 01 May 18:51:28 18:53:50 13° 60° (ENE) 18:56:12 145.822/145.860
M-CUBED/EXP-1 PRIME 01 May 18:57:42 19:02:25 79° 252° (WSW) 19:07:07 437.505
Cosmos 2491 01 May 18:59:36 19:08:22 69° 267° (W) 19:17:01 435.465 / 435.565
HO-68 01 May 19:07:17 19:13:29 33° 61° (ENE) 19:19:40 435.675
BEESAT 3 01 May 19:07:30 19:11:22 60° 120° (ESE) 19:15:17 437.485
CANX-2 01 May 19:11:33 19:14:22 18° 65° (ENE) 19:17:10 2200.000
YUBILEINY 01 May 19:12:10 19:20:45 65° 92° (E) 19:29:20 435.215
BEESAT 2 01 May 19:12:21 19:16:03 39° 117° (ESE) 19:19:48 435.950
LilacSat-2 01 May 19:13:45 19:17:07 28° 264° (W) 19:20:30 437.200
AUBIESAT-1 01 May 19:17:47 19:22:23 59° 255° (WSW) 19:26:57 437.475
CUTE-I 01 May 19:23:39 19:28:18 30° 264° (W) 19:32:58 437.470
NOAA 18 01 May 19:25:29 19:29:47 23° 266° (W) 19:34:06 137.9125
GOMX 1 01 May 19:29:30 19:34:22 54° 262° (W) 19:39:35 467.674
DOVE 4 01 May 19:32:02 19:37:07 85° 76° (ENE) 19:42:26 437.250
CUBESAT XI-V 01 May 19:38:50 19:42:40 25° 293° (WNW) 19:46:31 437.345
CUTE 1.7 + AOD 2 01 May 19:43:28 19:47:15 33° 70° (ENE) 19:51:01 437.475
Cosmos 2504 01 May 19:44:48 19:50:16 24° 83° (E) 19:55:40 435.465 / 435.565
CUBEBUG 2 01 May 19:47:16 19:49:58 15° 63° (ENE) 19:52:38 437.445
BRITE-PL 01 May 19:51:07 19:54:22 18° 271° (W) 19:57:47 437.365/2234.400
AO-85 01 May 19:55:27 19:56:32 11° 26° (NNE) 19:57:35 145.980
Cubesat XI-IV 01 May 20:10:46 20:12:48 12° 272° (W) 20:14:51 437.490
SEEDS 01 May 20:12:50 20:16:52 50° 73° (ENE) 20:20:55 437.485
ZACube-1 01 May 20:16:43 20:19:03 14° 62° (ENE) 20:21:22 437.345
COMPASS 1 01 May 20:18:46 20:22:40 41° 72° (ENE) 20:26:34 437.405
STRAND 1 01 May 20:23:28 20:28:37 82° 104° (ESE) 20:33:44 437.568
CINEMA 3 01 May 20:25:14 20:30:15 85° 257° (WSW) 20:35:18 145.822/145.860
AIST 2 01 May 20:33:59 20:37:07 21° 112° (ESE) 20:40:16 435.215
DELFI C3 01 May 20:42:25 20:44:01 12° 63° (ENE) 20:45:37 145.870
CANX-2 01 May 20:45:52 20:49:54 43° 262° (W) 20:53:57 2200.000
BEESAT 3 01 May 20:46:49 20:49:27 17° 319° (NW) 20:52:06 437.485
AAUSAT CUBESAT 2 01 May 20:50:39 20:54:45 78° 77° (ENE) 20:58:53 437.432
BEESAT 2 01 May 20:50:50 20:54:03 23° 315° (NW) 20:57:16 435.950
HO-68 01 May 20:53:57 21:00:54 53° 259° (W) 21:07:53 435.675
Oscar 11 01 May 20:59:28 21:03:30 40° 71° (ENE) 21:07:32 145.826/435.025
Cosmos 2491 01 May 21:00:00 21:03:24 13° 288° (WNW) 21:06:50 435.465 / 435.565
FUNcube-1 01 May 21:08:59 21:13:15 43° 72° (ENE) 21:17:28 145.935
YUBILEINY 01 May 21:10:49 21:18:11 29° 293° (WNW) 21:25:34 435.215
DOVE 4 01 May 21:13:31 21:15:30 12° 274° (W) 21:17:32 437.250
UWE-3 01 May 21:16:35 21:21:14 81° 77° (ENE) 21:25:50 435.000/436.395/437.385
RS-15 01 May 21:18:08 21:28:09 40° 106° (ESE) 21:38:38 29.354- 29.394
CUTE 1.7 + AOD 2 01 May 21:19:51 21:23:08 22° 266° (W) 21:26:26 437.475
CUBEBUG 2 01 May 21:21:20 21:26:04 66° 258° (WSW) 21:30:45 437.445
HUMSAT D 01 May 21:30:08 21:33:13 20° 66° (ENE) 21:36:17 437.325/437.525
AO-85 01 May 21:33:47 21:38:26 42° 48° (NE) 21:42:40 145.980
Cosmos 2504 01 May 21:35:49 21:43:01 61° 281° (WNW) 21:50:07 435.465 / 435.565
PRISM 01 May 21:36:10 21:40:21 76° 284° (WNW) 21:44:30 437.425
ZACube-1 01 May 21:50:18 21:54:49 66° 259° (W) 21:59:17 437.345
SEEDS 01 May 21:50:38 21:52:52 14° 269° (W) 21:55:06 437.485
COMPASS 1 01 May 21:55:46 21:58:26 16° 268° (W) 22:01:06 437.405
STRAND 1 01 May 22:04:31 22:07:06 14° 301° (WNW) 22:09:41 437.568
AIST 2 01 May 22:11:27 22:15:22 40° 310° (NW) 22:19:17 435.215
DELFI C3 01 May 22:14:32 22:18:24 58° 259° (W) 22:22:19 145.870
ANTELSAT 01 May 22:24:13 22:26:50 15° 91° (E) 22:29:24 437.575/2403.000
Oscar 11 01 May 22:36:44 22:39:47 19° 267° (W) 22:42:51 145.826/435.025
AISAT 01 May 22:38:44 22:41:48 19° 64° (ENE) 22:44:55 437.250
FUNcube-1 01 May 22:46:27 22:49:39 19° 267° (W) 22:52:52 145.935
ESTCUBE 1 01 May 22:51:28 22:55:23 31° 68° (ENE) 22:59:21 437.505/2401.250
UWE-3 01 May 22:57:15 22:58:12 11° 272° (W) 22:59:10 435.000/436.395/437.385
HUMSAT D 01 May 23:04:40 23:08:36 37° 262° (W) 23:12:31 437.325/437.525
GONETS M04 01 May 23:06:23 23:09:48 13° 72° (ENE) 23:13:14
AO-85 01 May 23:14:53 23:18:37 24° 249° (WSW) 23:22:05 145.980
UNISAT 6 01 May 23:17:14 23:21:33 59° 101° (E) 23:25:45 437.425
CUBEBUG 1 01 May 23:17:39 23:21:45 40° 71° (ENE) 23:25:54 437.445
NANOSAT C BR1 01 May 23:19:06 23:20:16 11° 89° (E) 23:21:25 145.865
RS-15 01 May 23:28:37 23:39:54 66° 310° (NW) 23:51:54 29.354- 29.394
TIGRISAT 01 May 23:35:10 23:39:32 88° 103° (ESE) 23:43:48 435.000
Cosmos 2504 01 May 23:37:57 23:38:06 10° 304° (NW) 23:38:15 435.465 / 435.565
VELOX 1 01 May 23:41:31 23:45:56 77° 74° (ENE) 23:50:24 145.980
DX 1 01 May 23:42:30 23:46:50 71° 74° (ENE) 23:51:13 434.975-435.025
UKube-1 01 May 23:51:08 23:55:26 73° 74° (ENE) 23:59:46 .
50 SAT 01 May 23:52:42 23:56:20 63° 258° (WSW) 23:59:59 437.505
Cosmos 2499 01 May 23:58:38 00:00:22 11° 75° (ENE) 00:02:07 435.465 / 435.565
ANTELSAT 01 May 23:59:39 00:03:51 48° 288° (WNW) 00:07:57 437.575/2403.000
PCSat 02 May 00:03:27 00:07:48 24° 44° (NE) 00:12:09 145.827
QB50P2 02 May 00:08:26 00:12:29 43° 98° (E) 00:16:31 145.880/145.840
DUCHIFAT 1 02 May 00:09:44 00:13:43 38° 98° (E) 00:17:37 145.980
POLYITAN 1 02 May 00:10:34 00:14:38 44° 99° (E) 00:18:40 437.675
POPSAT HIP 1 02 May 00:13:27 00:17:34 46° 99° (E) 00:21:38 437.405
AISAT 02 May 00:13:40 00:17:56 46° 260° (W) 00:22:16 437.250
QB50P1 02 May 00:16:47 00:20:56 51° 100° (E) 00:25:02 145.935-145.965
SPROUT 02 May 00:23:08 00:27:27 79° 75° (ENE) 00:31:47 437.525
ESTCUBE 1 02 May 00:28:27 00:32:12 26° 265° (W) 00:35:59 437.505/2401.250
O/OREOS (USA 219) 02 May 00:40:18 00:44:37 41° 61° (ENE) 00:48:53 437.305
NANOSAT C BR1 02 May 00:52:14 00:56:27 66° 286° (WNW) 01:00:37 145.865
CUBEBUG 1 02 May 00:55:04 00:58:12 19° 267° (W) 01:01:23 437.445
UNISAT 6 02 May 00:55:28 00:57:46 14° 298° (WNW) 01:00:02 437.425
AIST 1 02 May 00:55:54 01:00:12 77° 96° (E) 01:04:33
GONETS M04 02 May 00:56:06 01:04:51 69° 93° (E) 01:13:36
BUGSAT 1 02 May 00:56:14 01:00:25 62° 101° (E) 01:04:32 437.445
TISAT 1 02 May 01:01:21 01:05:33 63° 73° (ENE) 01:09:47 437.305
BEESAT 02 May 01:07:15 01:10:11 17° 62° (ENE) 01:13:08 436.000
VELOX 1 02 May 01:22:14 01:22:56 10° 271° (W) 01:23:38 145.980
DX 1 02 May 01:22:22 01:23:31 11° 271° (W) 01:24:39 434.975-435.025
UKube-1 02 May 01:31:10 01:31:58 10° 271° (W) 01:32:48 .
JAS-2 02 May 01:34:12 01:41:41 48° 97° (E) 01:49:09 435.910
CUSAT 1 02 May 01:36:13 01:42:39 36° 72° (ENE) 01:49:51 437.405
Oscar 19 02 May 01:41:55 01:46:17 26° 94° (E) 01:50:37 437.125/150
Cosmos 2499 02 May 01:45:01 01:52:05 75° 95° (E) 01:59:11 435.465 / 435.565
QB50P2 02 May 01:45:06 01:47:58 18° 296° (WNW) 01:50:50 145.880/145.840
RS-15 02 May 01:45:28 01:55:17 29° 341° (NNW) 02:05:30 29.354- 29.394
DUCHIFAT 1 02 May 01:46:05 01:49:09 20° 295° (WNW) 01:52:11 145.980
PCSat 02 May 01:46:17 01:51:39 63° 244° (WSW) 01:56:59 145.827
POLYITAN 1 02 May 01:47:17 01:50:07 18° 296° (WNW) 01:52:56 437.675
POPSAT HIP 1 02 May 01:50:15 01:52:59 17° 296° (WNW) 01:55:44 437.405
QB50P1 02 May 01:53:46 01:56:18 16° 297° (WNW) 01:58:49 145.935-145.965
ITUPSAT 1 02 May 01:59:33 02:04:09 49° 71° (ENE) 02:08:44 437.325
DANDE 02 May 02:09:09 02:14:48 32° 73° (ENE) 02:21:31 436.750
SWISSCUBE 02 May 02:09:24 02:14:07 70° 74° (ENE) 02:18:51 437.505
O/OREOS (USA 219) 02 May 02:20:25 02:23:42 20° 259° (W) 02:26:58 437.305
BUGSAT 1 02 May 02:33:19 02:35:16 13° 298° (WNW) 02:37:13 437.445
AIST 1 02 May 02:38:05 02:38:24 10° 295° (WNW) 02:38:44
TISAT 1 02 May 02:40:04 02:41:37 12° 270° (W) 02:43:11 437.305
BEESAT 02 May 02:42:48 02:47:30 61° 259° (W) 02:52:14 436.000
GONETS M04 02 May 02:55:07 03:02:25 28° 294° (WNW) 03:09:45
ITAMSAT 1 02 May 02:58:22 03:02:28 23° 94° (E) 03:06:32 435.822/435.867
Gurwin Techsat 1B 02 May 03:06:58 03:12:16 67° 102° (ESE) 03:17:33 435.225
AO-7 02 May 03:16:46 03:21:48 17° 89° (E) 03:26:47 29.400- 29.500
CUSAT 1 02 May 03:18:03 03:24:55 52° 266° (W) 03:32:37 437.405
JAS-2 02 May 03:19:25 03:26:31 41° 295° (WNW) 03:33:41 435.910
Oscar 19 02 May 03:20:52 03:25:43 40° 291° (WNW) 03:30:31 437.125/150
MOZHAYETS 4 02 May 03:23:03 03:26:59 29° 68° (ENE) 03:30:56
BEESAT 3 02 May 03:24:04 03:27:55 46° 52° (NE) 03:31:42 437.485
KKS-1 02 May 03:26:30 03:30:50 51° 72° (ENE) 03:35:12 437.445
BEESAT 2 02 May 03:29:34 03:33:13 33° 49° (NE) 03:36:49 435.950
ITUPSAT 1 02 May 03:38:58 03:42:15 18° 268° (W) 03:45:33 437.325
Cosmos 2499 02 May 03:41:05 03:46:01 20° 296° (WNW) 03:50:59 435.465 / 435.565
STARS 02 May 03:45:55 03:50:07 43° 71° (ENE) 03:54:20 437.465
SWISSCUBE 02 May 03:50:16 03:52:24 13° 270° (W) 03:54:33 437.505
DANDE 02 May 03:51:29 03:57:45 53° 265° (W) 04:05:24 436.750
RS-15 02 May 04:03:03 04:13:00 28° 16° (NNE) 04:23:10 29.354- 29.394
ITAMSAT 1 02 May 04:37:12 04:42:08 45° 290° (WNW) 04:47:02 435.822/435.867
HORYU 2 02 May 04:45:03 04:47:54 16° 92° (E) 04:50:41 437.375
Gurwin Techsat 1B 02 May 04:48:10 04:51:41 18° 299° (WNW) 04:55:10 435.225
AIST 2 02 May 04:53:50 04:57:07 22° 44° (NE) 05:00:21 435.215
MOZHAYETS 4 02 May 05:00:09 05:04:06 28° 265° (W) 05:08:04
BEESAT 3 02 May 05:02:43 05:05:15 17° 249° (WSW) 05:07:46 437.485
KKS-1 02 May 05:04:55 05:07:42 16° 268° (W) 05:10:30 437.445
CUBESAT XI-V 02 May 05:05:15 05:09:28 38° 70° (ENE) 05:13:45 437.345
AO-7 02 May 05:07:19 05:15:42 84° 107° (ESE) 05:24:05 29.400- 29.500
BEESAT 2 02 May 05:07:40 05:10:56 24° 246° (WSW) 05:14:10 435.950
YUBILEINY 02 May 05:21:27 05:29:08 33° 69° (ENE) 05:36:47 435.215
STARS 02 May 05:23:32 05:26:40 19° 267° (W) 05:29:49 437.465
CUTE-I 02 May 06:01:12 06:03:28 13° 89° (E) 06:05:43 437.470
STRAND 1 02 May 06:03:24 06:06:42 18° 61° (ENE) 06:09:59 437.568
NOAA 18 02 May 06:05:36 06:09:24 19° 92° (E) 06:13:12 137.9125
Cosmos 2491 02 May 06:06:31 06:13:47 30° 82° (E) 06:21:03 435.465 / 435.565
BRITE-PL 02 May 06:15:06 06:19:17 21° 90° (E) 06:23:25 437.365/2234.400
RS-15 02 May 06:16:44 06:28:51 60° 47° (NE) 06:40:59 29.354- 29.394
HORYU 2 02 May 06:20:27 06:24:42 48° 289° (WNW) 06:28:57 437.375
SO-50 02 May 06:29:17 06:31:53 14° 108° (ESE) 06:34:31 436.795
AIST 2 02 May 06:31:50 06:35:48 45° 242° (WSW) 06:39:44 435.215
CUBESAT XI-V 02 May 06:43:23 06:46:59 22° 267° (W) 06:50:36 437.345
Cubesat XI-IV 02 May 06:43:23 06:48:07 32° 96° (E) 06:52:50 437.490
NOAA 15 02 May 06:44:13 06:49:23 48° 100° (E) 06:54:30 137.62
LilacSat-2 02 May 06:46:05 06:49:22 27° 95° (E) 06:52:37 437.200
AO-7 02 May 07:01:13 07:07:34 25° 308° (NW) 07:13:56 29.400- 29.500
ISS 02 May 07:10:07 07:12:22 18° 133° (SE) 07:14:39 145.825
YUBILEINY 02 May 07:17:55 07:26:21 57° 269° (W) 07:34:47 435.215
Cosmos 2504 02 May 07:25:47 07:33:05 49° 76° (ENE) 07:40:52 435.465 / 435.565
GOMX 1 02 May 07:30:24 07:35:41 47° 97° (E) 07:40:45 467.674
DOVE 4 02 May 07:31:09 07:35:16 24° 92° (E) 07:39:13 437.250
CUTE-I 02 May 07:38:49 07:44:09 83° 286° (WNW) 07:49:28 437.470
STRAND 1 02 May 07:40:18 07:45:21 64° 258° (WSW) 07:50:26 437.568
NOAA 18 02 May 07:45:06 07:50:28 60° 289° (WNW) 07:55:49 137.9125
BRITE-PL 02 May 07:52:29 07:58:06 60° 288° (WNW) 08:03:38 437.365/2234.400
Cosmos 2491 02 May 08:01:16 08:09:58 63° 282° (WNW) 08:18:47 435.465 / 435.565
SO-50 02 May 08:06:51 08:11:46 77° 305° (NW) 08:16:43 436.795
M-CUBED/EXP-1 PRIME 02 May 08:11:40 08:15:40 67° 107° (ESE) 08:19:18 437.505
CINEMA 3 02 May 08:20:20 08:23:56 22° 92° (E) 08:27:22 145.822/145.860
LilacSat-2 02 May 08:20:37 08:23:33 21° 292° (WNW) 08:26:28 437.200
HO-68 02 May 08:20:49 08:26:57 30° 95° (E) 08:33:02 435.675
Cubesat XI-IV 02 May 08:23:24 08:28:11 35° 293° (WNW) 08:32:57 437.490
NOAA 15 02 May 08:24:39 08:28:50 24° 297° (WNW) 08:33:01 137.62
PRISM 02 May 08:26:11 08:30:15 86° 79° (E) 08:34:22 437.425
RS-15 02 May 08:29:42 08:41:10 48° 250° (WSW) 08:52:37 29.354- 29.394
CANX-2 02 May 08:30:03 08:33:43 28° 95° (E) 08:37:22 2200.000
AUBIESAT-1 02 May 08:31:01 08:34:59 87° 289° (WNW) 08:38:36 437.475
AAUSAT CUBESAT 2 02 May 08:34:16 08:35:36 11° 89° (E) 08:36:57 437.432
ISS 02 May 08:45:19 08:48:32 60° 330° (NNW) 08:51:47 145.825
TIGRISAT 02 May 09:02:09 09:02:42 10° 59° (ENE) 09:03:16 435.000
CUTE 1.7 + AOD 2 02 May 09:02:39 09:06:49 57° 100° (E) 09:10:58 437.475
UWE-3 02 May 09:07:09 09:09:27 14° 90° (E) 09:11:42 435.000/436.395/437.385
DOVE 4 02 May 09:08:16 09:13:08 42° 290° (WNW) 09:17:46 437.250
GOMX 1 02 May 09:09:02 09:13:25 25° 296° (WNW) 09:17:41 467.674
CUBEBUG 2 02 May 09:12:14 09:15:44 23° 94° (E) 09:19:08 437.445
Cosmos 2504 02 May 09:19:37 09:26:11 34° 274° (W) 09:33:10 435.465 / 435.565
CUTE-I 02 May 09:21:15 09:23:22 12° 303° (WNW) 09:25:28 437.470
ANTELSAT 02 May 09:23:46 09:26:54 18° 64° (ENE) 09:29:59 437.575/2403.000
SEEDS 02 May 09:31:10 09:35:23 89° 114° (ESE) 09:39:35 437.485
COMPASS 1 02 May 09:35:50 09:40:00 72° 103° (ESE) 09:44:08 437.405
ZACube-1 02 May 09:38:39 09:41:53 21° 93° (E) 09:45:02 437.345
M-CUBED/EXP-1 PRIME 02 May 09:48:08 09:49:35 12° 306° (NW) 09:51:00 437.505
SO-50 02 May 09:50:05 09:53:05 16° 325° (NW) 09:56:03 436.795
DELFI C3 02 May 09:52:20 09:54:53 16° 92° (E) 09:57:26 145.870
CINEMA 3 02 May 09:56:53 10:01:13 38° 290° (WNW) 10:05:21 145.822/145.860
Cosmos 2491 02 May 10:05:09 10:08:57 13° 306° (NW) 10:12:46 435.465 / 435.565
CANX-2 02 May 10:06:00 10:09:30 26° 292° (WNW) 10:12:59 2200.000
AAUSAT CUBESAT 2 02 May 10:07:24 10:11:30 62° 286° (WNW) 10:15:36 437.432
HO-68 02 May 10:08:02 10:14:58 55° 293° (WNW) 10:21:53 435.675
NANOSAT C BR1 02 May 10:13:03 10:13:56 11° 60° (ENE) 10:14:50 145.865
UNISAT 6 02 May 10:16:20 10:20:55 59° 73° (ENE) 10:25:26 437.425
Oscar 11 02 May 10:21:23 10:25:42 74° 102° (ESE) 10:29:59 145.826/435.025
ISS 02 May 10:22:58 10:25:29 20° 349° (N) 10:28:01 145.825
FUNcube-1 02 May 10:32:10 10:36:23 80° 104° (ESE) 10:40:31 145.935
TIGRISAT 02 May 10:33:59 10:38:39 85° 78° (ENE) 10:43:16 435.000
PHONESAT 2.4 02 May 10:36:29 10:38:56 21° 156° (SSE) 10:41:23 2401.200-2431.200
CUTE 1.7 + AOD 2 02 May 10:40:01 10:42:12 14° 297° (WNW) 10:44:22 437.475
UWE-3 02 May 10:42:06 10:46:15 50° 288° (WNW) 10:50:18 435.000/436.395/437.385
HUMSAT D 02 May 10:47:12 10:50:48 29° 96° (E) 10:54:23 437.325/437.525
CUBEBUG 2 02 May 10:48:33 10:52:24 31° 291° (WNW) 10:56:08 437.445
ANTELSAT 02 May 10:58:41 11:03:13 51° 260° (W) 11:07:43 437.575/2403.000
QB50P2 02 May 11:01:45 11:05:41 37° 70° (ENE) 11:09:39 145.880/145.840
DUCHIFAT 1 02 May 11:02:24 11:06:12 32° 69° (ENE) 11:10:01 145.980
AIST 1 02 May 11:02:35 11:05:58 21° 72° (ENE) 11:09:21
POLYITAN 1 02 May 11:03:52 11:07:50 37° 70° (ENE) 11:11:49 437.675
GONETS M04 02 May 11:05:39 11:13:33 36° 69° (ENE) 11:21:20
POPSAT HIP 1 02 May 11:06:36 11:10:35 39° 71° (ENE) 11:14:36 437.405
QB50P1 02 May 11:09:50 11:13:53 43° 71° (ENE) 11:17:57 145.935-145.965
COMPASS 1 02 May 11:13:42 11:14:58 11° 298° (WNW) 11:16:14 437.405
ZACube-1 02 May 11:14:27 11:18:15 33° 290° (WNW) 11:21:59 437.345
DELFI C3 02 May 11:26:12 11:29:56 39° 288° (WNW) 11:33:39 145.870
DX 1 02 May 11:32:05 11:33:32 11° 90° (E) 11:34:59 434.975-435.025
VELOX 1 02 May 11:32:24 11:34:40 14° 90° (E) 11:36:55 145.980
Cosmos 2499 02 May 11:34:03 11:40:30 28° 69° (ENE) 11:47:19 435.465 / 435.565
UKube-1 02 May 11:39:49 11:41:05 11° 90° (E) 11:42:21 .
NANOSAT C BR1 02 May 11:44:44 11:49:01 82° 257° (WSW) 11:53:19 145.865
BUGSAT 1 02 May 11:46:26 11:50:30 48° 72° (ENE) 11:54:37 437.445
JAS-2 02 May 11:49:03 11:53:34 22° 56° (ENE) 11:58:27 435.910
AO-85 02 May 11:50:35 11:53:15 14° 106° (ESE) 11:55:55 145.980
UNISAT 6 02 May 11:55:21 11:57:58 15° 269° (W) 12:00:34 437.425
HO-68 02 May 11:58:56 12:01:09 12° 313° (NW) 12:03:22 435.675
Oscar 11 02 May 11:59:43 12:01:14 12° 299° (WNW) 12:02:43 145.826/435.025
ISS 02 May 12:00:18 12:02:48 20° 10° (N) 12:05:16 145.825
AISAT 02 May 12:03:05 12:07:02 30° 96° (E) 12:10:58 437.250
SPROUT 02 May 12:10:09 12:12:05 13° 90° (E) 12:14:00 437.525
FUNcube-1 02 May 12:11:25 12:11:58 10° 300° (WNW) 12:12:30 145.935
PHONESAT 2.4 02 May 12:12:23 12:15:27 49° 173° (S) 12:18:31 2401.200-2431.200
ESTCUBE 1 02 May 12:19:00 12:23:30 60° 101° (E) 12:27:59 437.505/2401.250
HUMSAT D 02 May 12:23:05 12:26:18 23° 293° (WNW) 12:29:31 437.325/437.525
QB50P2 02 May 12:38:24 12:41:36 20° 267° (W) 12:44:49 145.880/145.840
DUCHIFAT 1 02 May 12:38:32 12:41:56 23° 266° (W) 12:45:22 145.980
AIST 1 02 May 12:39:39 12:43:40 35° 269° (W) 12:47:40
POLYITAN 1 02 May 12:40:35 12:43:46 20° 267° (W) 12:46:57 437.675
CUBEBUG 1 02 May 12:41:08 12:45:36 74° 103° (ESE) 12:50:00 437.445
POPSAT HIP 1 02 May 12:43:26 12:46:31 19° 267° (W) 12:49:38 437.405
QB50P1 02 May 12:46:58 12:49:51 17° 268° (W) 12:52:45 145.935-145.965
Gurwin Techsat 1B 02 May 12:51:42 12:54:56 17° 60° (ENE) 12:58:11 435.225
50 SAT 02 May 12:55:19 12:58:55 54° 286° (WNW) 13:02:29 437.505
Oscar 19 02 May 12:59:24 13:04:15 42° 69° (ENE) 13:09:08 437.125/150
GONETS M04 02 May 13:02:17 13:10:41 53° 270° (W) 13:19:01
DX 1 02 May 13:05:49 13:10:11 69° 287° (WNW) 13:14:32 434.975-435.025
VELOX 1 02 May 13:07:06 13:11:31 60° 287° (WNW) 13:15:54 145.980
UKube-1 02 May 13:13:16 13:17:36 69° 286° (WNW) 13:21:54 .
BUGSAT 1 02 May 13:23:36 13:26:09 15° 269° (W) 13:28:43 437.445
Cosmos 2499 02 May 13:26:29 13:34:03 62° 267° (W) 13:42:12 435.465 / 435.565
AO-85 02 May 13:27:34 13:33:03 89° 121° (ESE) 13:38:29 145.980
JAS-2 02 May 13:31:52 13:37:47 72° 258° (WSW) 13:44:34 435.910
ISS 02 May 13:36:33 13:39:46 55° 28° (NNE) 13:42:59 145.825
AISAT 02 May 13:39:38 13:43:25 27° 293° (WNW) 13:47:10 437.250
SPROUT 02 May 13:44:11 13:48:26 59° 286° (WNW) 13:52:38 437.525
PHONESAT 2.4 02 May 13:49:05 13:52:08 46° 189° (S) 13:55:10 2401.200-2431.200
ESTCUBE 1 02 May 13:57:11 13:59:50 15° 298° (WNW) 14:02:28 437.505/2401.250
ITUPSAT 1 02 May 14:01:22 14:02:58 11° 89° (E) 14:04:34 437.325
SWISSCUBE 02 May 14:09:51 14:12:52 16° 92° (E) 14:15:51 437.505
AO-7 02 May 14:16:29 14:23:16 30° 55° (NE) 14:30:05 29.400- 29.500
ITAMSAT 1 02 May 14:16:59 14:21:45 39° 68° (ENE) 14:26:33 435.822/435.867
CUBEBUG 1 02 May 14:19:24 14:21:17 12° 299° (WNW) 14:23:08 437.445
TISAT 1 02 May 14:19:55 14:24:10 81° 284° (WNW) 14:28:22 437.305
Gurwin Techsat 1B 02 May 14:28:58 14:34:16 74° 257° (WSW) 14:39:37 435.225
Oscar 19 02 May 14:39:30 14:43:42 25° 266° (W) 14:47:57 437.125/150
BEESAT 02 May 14:42:11 14:46:25 31° 96° (E) 14:50:38 436.000
CUSAT 1 02 May 14:43:55 14:46:11 16° 82° (E) 14:48:46 437.405
PCSat 02 May 14:48:16 14:51:06 14° 103° (ESE) 14:53:56 145.827
O/OREOS (USA 219) 02 May 14:53:18 14:57:36 41° 106° (ESE) 15:01:55 437.305
SO-50 02 May 14:58:00 15:01:34 20° 39° (NE) 15:05:04 436.795
AO-85 02 May 15:10:17 15:14:16 20° 322° (NW) 15:18:11 145.980
ISS 02 May 15:13:33 15:15:59 19° 226° (SW) 15:18:25 145.825
DANDE 02 May 15:23:47 15:25:05 12° 84° (E) 15:26:30 436.750
PHONESAT 2.4 02 May 15:26:22 15:28:36 18° 206° (SSW) 15:30:50 2401.200-2431.200
ITUPSAT 1 02 May 15:36:35 15:41:22 78° 285° (WNW) 15:46:07 437.325
